TimeCET,TemperatureF,Dew PointF,Humidity,Sea Level PressureIn,VisibilityMPH,Wind Direction,Wind SpeedMPH,Gust SpeedMPH,PrecipitationIn,Events,Conditions,WindDirDegrees,DateUTC
12:00 AM,21.2,21.2,100,29.74,0.2,Calm,Calm,-,N/A,Fog,Light Freezing Fog,0,2013-01-23 23:00:00
1:00 AM,23.0,21.2,93,29.74,0.1,SSE,1.2,-,N/A,Fog,Light Freezing Fog,160,2013-01-24 00:00:00
2:00 AM,23.0,21.2,93,29.74,0.1,Variable,2.3,-,N/A,Fog,Light Freezing Fog,0,2013-01-24 01:00:00
3:00 AM,23.0,21.2,93,29.74,0.1,SSE,3.5,-,N/A,Fog,Light Freezing Fog,160,2013-01-24 02:00:00
4:00 AM,23.0,21.2,93,29.74,0.1,SSE,1.2,-,N/A,Fog,Light Freezing Fog,150,2013-01-24 03:00:00
5:00 AM,23.0,23.0,100,29.74,0.1,Variable,1.2,-,N/A,Fog,Light Freezing Fog,0,2013-01-24 04:00:00
6:00 AM,23.0,23.0,100,29.74,0.4,Variable,2.3,-,N/A,Fog,Light Freezing Fog,0,2013-01-24 05:00:00
7:00 AM,23.0,23.0,100,29.74,0.9,Variable,2.3,-,N/A,,Overcast,0,2013-01-24 06:00:00
8:00 AM,24.8,23.0,93,29.74,1.0,Variable,1.2,-,N/A,,Overcast,0,2013-01-24 07:00:00
9:00 AM,24.8,23.0,93,29.74,1.2,Variable,2.3,-,N/A,,Overcast,0,2013-01-24 08:00:00
10:00 AM,24.8,24.8,100,29.77,1.6,WNW,1.2,-,N/A,,Overcast,300,2013-01-24 09:00:00
11:00 AM,24.8,24.8,100,29.77,1.6,NW,2.3,-,N/A,,Overcast,320,2013-01-24 10:00:00
12:00 PM,26.6,24.8,93,29.77,2.8,NNW,3.5,-,N/A,,Overcast,340,2013-01-24 11:00:00
12:44 PM,26.6,26.6,100,29.74,3.7,North,4.6,-,N/A,,Mostly Cloudy,360,2013-01-24 11:44:00
1:00 PM,26.6,26.6,100,29.74,4.3,North,4.6,-,N/A,,Mostly Cloudy,350,2013-01-24 12:00:00
2:00 PM,28.4,26.6,93,29.74,6.2,North,5.8,-,N/A,,Mostly Cloudy,350,2013-01-24 13:00:00
3:00 PM,28.4,26.6,93,29.77,6.2,North,6.9,-,N/A,,Mostly Cloudy,350,2013-01-24 14:00:00
4:00 PM,26.6,26.6,100,29.77,6.2,North,4.6,-,N/A,,Mostly Cloudy,350,2013-01-24 15:00:00
5:00 PM,24.8,24.8,100,29.77,3.7,North,3.5,-,N/A,,Mostly Cloudy,360,2013-01-24 16:00:00
6:00 PM,24.8,23.0,93,29.80,4.3,North,4.6,-,N/A,,Mostly Cloudy,360,2013-01-24 17:00:00
6:17 PM,24.8,24.8,100,29.80,4.3,North,4.6,-,N/A,,Mostly Cloudy,360,2013-01-24 17:17:00
7:00 PM,26.6,24.8,93,29.80,5.0,North,2.3,-,N/A,,Overcast,360,2013-01-24 18:00:00
8:00 PM,26.6,24.8,93,29.80,4.3,NNE,4.6,-,N/A,,Overcast,20,2013-01-24 19:00:00
9:00 PM,26.6,24.8,93,29.83,3.7,North,6.9,-,N/A,,Overcast,10,2013-01-24 20:00:00
10:00 PM,26.6,24.8,93,29.83,3.7,North,8.1,-,N/A,,Overcast,360,2013-01-24 21:00:00
10:27 PM,24.8,23.0,93,29.83,2.5,NNW,3.5,-,N/A,,Overcast,330,2013-01-24 21:27:00
11:00 PM,24.8,23.0,93,29.83,1.6,NNW,4.6,-,N/A,,Overcast,330,2013-01-24 22:00:00